Torna al catalogo

STARLINK-11740

AttivoComunicazioniVLEO
NORAD 64382·PAYLOAD·🇺🇸 United States

Lanciato Jun 13, 2025 da Cape Canaveral Space Force Station

Loading…

Prossimi Passaggi (prossime 24 ore)

TLE

AggiornatoSource: CelesTrak SupGP

Epoca: Sep 15, 2026, 03:53 UTC

1 64382C 25127N   26258.16229167 -.00084223  00000+0 -65430-3 0  2586
2 64382  43.0009  22.1377 0001836 255.2437 154.8694 15.70874502    16

Traccia STARLINK-11740 in tempo reale con AllMySat

Download on the App Store